N858BE RPVD-RPVB

Flight info

Callsign N858BE
Flight time 0h 33m
Altitude 6500
Route VFR
Aircraft BE58/L-SDFGRY/S

Departure

Time 2026-04-25 09:36
Airport Sibulan Airport (RPVD)

Arrival

Time 2026-04-25 10:10
Airport Bacolod-Silay International Airport (RPVB)
Time Latitude Longitude Altitude Speed Heading
2026-04-25 09:24 9.33401 123.29365 46 ft 0 kts 265°
2026-04-25 09:32 9.33403 123.29357 46 ft 4 kts 303°
2026-04-25 09:32 9.33414 123.29353 46 ft 0 kts 356°
2026-04-25 09:35 9.33424 123.29352 47 ft 5 kts 355°
2026-04-25 09:35 9.33464 123.29377 48 ft 7 kts 92°
2026-04-25 09:35 9.33463 123.29385 48 ft 0 kts 94°
2026-04-25 09:35 9.33463 123.29386 48 ft 5 kts 93°
2026-04-25 09:36 9.33443 123.29744 44 ft 90 kts 93°
2026-04-25 09:36 9.33394 123.30523 176 ft 126 kts 94°
2026-04-25 09:36 9.33344 123.31456 452 ft 136 kts 87°
2026-04-25 09:36 9.33727 123.32328 728 ft 143 kts 47°
2026-04-25 09:37 9.34671 123.32719 890 ft 159 kts
2026-04-25 09:37 9.35657 123.32198 1020 ft 170 kts 313°
2026-04-25 09:37 9.36384 123.31293 1320 ft 163 kts 311°
2026-04-25 09:37 9.37089 123.30404 1534 ft 163 kts 312°
2026-04-25 09:38 9.37800 123.29501 1710 ft 166 kts 311°
2026-04-25 09:38 9.38504 123.28583 1936 ft 163 kts 311°
2026-04-25 09:38 9.39213 123.27689 2134 ft 164 kts 313°
2026-04-25 09:38 9.39948 123.26802 2361 ft 163 kts 311°
2026-04-25 09:39 9.40695 123.25941 2546 ft 165 kts 316°
2026-04-25 09:39 9.41518 123.25125 2723 ft 165 kts 322°
2026-04-25 09:39 9.42373 123.24361 2947 ft 164 kts 323°
2026-04-25 09:40 9.44102 123.22898 3337 ft 162 kts 325°
2026-04-25 09:40 9.44973 123.22169 3503 ft 164 kts 325°
2026-04-25 09:40 9.45845 123.21423 3698 ft 164 kts 326°
2026-04-25 09:40 9.46732 123.20690 3868 ft 165 kts 326°
2026-04-25 09:41 9.47657 123.19997 3999 ft 166 kts 330°
2026-04-25 09:41 9.48589 123.19318 4165 ft 165 kts 328°
2026-04-25 09:41 9.49515 123.18628 4306 ft 165 kts 330°
2026-04-25 09:41 9.50450 123.17942 4432 ft 167 kts 329°
2026-04-25 09:42 9.51405 123.17278 4557 ft 166 kts 333°
2026-04-25 09:42 9.52409 123.16673 4655 ft 169 kts 335°
2026-04-25 09:42 9.53424 123.16074 4811 ft 168 kts 334°
2026-04-25 09:42 9.54418 123.15463 4956 ft 167 kts 334°
2026-04-25 09:43 9.55393 123.14819 5076 ft 168 kts 334°
2026-04-25 09:43 9.56359 123.14147 5186 ft 168 kts 334°
2026-04-25 09:43 9.57339 123.13492 5276 ft 169 kts 333°
2026-04-25 09:43 9.58308 123.12816 5397 ft 169 kts 333°
2026-04-25 09:44 9.59265 123.12106 5505 ft 171 kts 330°
2026-04-25 09:44 9.60122 123.11244 5609 ft 177 kts 315°
2026-04-25 09:44 9.60848 123.10252 5726 ft 177 kts 312°
2026-04-25 09:44 9.61546 123.09225 5833 ft 177 kts 311°
2026-04-25 09:45 9.62250 123.08190 5963 ft 175 kts 311°
2026-04-25 09:45 9.62951 123.07180 6089 ft 174 kts 311°
2026-04-25 09:45 9.63672 123.06201 6169 ft 173 kts 314°
2026-04-25 09:45 9.64384 123.05221 6255 ft 171 kts 312°
2026-04-25 09:46 9.65086 123.04264 6314 ft 174 kts 314°
2026-04-25 09:46 9.65816 123.03274 6343 ft 176 kts 315°
2026-04-25 09:46 9.66596 123.02322 6399 ft 175 kts 319°
2026-04-25 09:46 9.67394 123.01406 6484 ft 175 kts 317°
2026-04-25 09:47 9.68226 123.00482 6488 ft 180 kts 318°
2026-04-25 09:47 9.69085 122.99522 6491 ft 187 kts 318°
2026-04-25 09:47 9.69978 122.98538 6500 ft 192 kts 318°
2026-04-25 09:47 9.70896 122.97541 6509 ft 194 kts 318°
2026-04-25 09:48 9.71832 122.96545 6505 ft 196 kts 318°
2026-04-25 09:48 9.72778 122.95537 6507 ft 199 kts 320°
2026-04-25 09:48 9.73716 122.94491 6504 ft 201 kts 318°
2026-04-25 09:48 9.74659 122.93437 6497 ft 203 kts 319°
2026-04-25 09:49 9.75603 122.92376 6503 ft 201 kts 317°
2026-04-25 09:49 9.76546 122.91353 6504 ft 201 kts 317°
2026-04-25 09:49 9.77637 122.90525 6498 ft 193 kts 344°
2026-04-25 09:49 9.78908 122.90151 6502 ft 189 kts 354°
2026-04-25 09:50 9.80192 122.89862 6502 ft 189 kts 354°
2026-04-25 09:50 9.81485 122.89599 6501 ft 189 kts 355°
2026-04-25 09:50 9.82781 122.89351 6501 ft 188 kts 355°
2026-04-25 09:50 9.84065 122.89150 6502 ft 187 kts 358°
2026-04-25 09:51 9.85353 122.88953 6502 ft 187 kts 358°
2026-04-25 09:51 9.86635 122.88752 6499 ft 186 kts 357°
2026-04-25 09:51 9.87909 122.88574 6491 ft 182 kts 360°
2026-04-25 09:51 9.89155 122.88536 6492 ft 178 kts
2026-04-25 09:52 9.90400 122.88585 6491 ft 179 kts
2026-04-25 09:52 9.91648 122.88644 6483 ft 177 kts
2026-04-25 09:52 9.92882 122.88717 6504 ft 179 kts
2026-04-25 09:52 9.94127 122.88787 6495 ft 179 kts
2026-04-25 09:53 9.95378 122.88905 6434 ft 184 kts 10°
2026-04-25 09:53 9.96668 122.89022 6370 ft 187 kts 10°
2026-04-25 09:53 9.97973 122.89126 6306 ft 188 kts 10°
2026-04-25 09:53 9.99282 122.89224 6239 ft 188 kts 10°
2026-04-25 09:54 10.00593 122.89340 6167 ft 190 kts 11°
2026-04-25 09:54 10.01910 122.89454 6095 ft 190 kts 10°
2026-04-25 09:54 10.03222 122.89561 6020 ft 189 kts 11°
2026-04-25 09:54 10.04533 122.89655 5950 ft 189 kts
2026-04-25 09:55 10.05845 122.89763 5874 ft 189 kts
2026-04-25 09:55 10.07137 122.89885 5799 ft 189 kts 10°
2026-04-25 09:55 10.08443 122.90006 5727 ft 188 kts 10°
2026-04-25 09:55 10.09751 122.90114 5657 ft 188 kts 10°
2026-04-25 09:56 10.11060 122.90214 5588 ft 188 kts 10°
2026-04-25 09:56 10.12370 122.90315 5509 ft 189 kts 11°
2026-04-25 09:56 10.13670 122.90426 5496 ft 185 kts
2026-04-25 09:56 10.14942 122.90551 5493 ft 183 kts 11°
2026-04-25 09:57 10.16201 122.90660 5494 ft 181 kts
2026-04-25 09:57 10.17451 122.90777 5492 ft 180 kts
2026-04-25 09:57 10.18697 122.90892 5491 ft 180 kts
2026-04-25 09:57 10.19951 122.91017 5425 ft 183 kts 10°
2026-04-25 09:58 10.21230 122.91151 5306 ft 187 kts
2026-04-25 09:58 10.22531 122.91299 5188 ft 188 kts 11°
2026-04-25 09:58 10.23836 122.91434 5072 ft 189 kts 11°
2026-04-25 09:58 10.25122 122.91553 4949 ft 187 kts 10°
2026-04-25 09:59 10.26409 122.91655 4832 ft 185 kts 10°
2026-04-25 09:59 10.27693 122.91768 4714 ft 185 kts
2026-04-25 09:59 10.28986 122.91892 4595 ft 188 kts 10°
2026-04-25 09:59 10.30293 122.92017 4474 ft 189 kts 10°
2026-04-25 10:00 10.31601 122.92137 4353 ft 189 kts 10°
2026-04-25 10:00 10.32902 122.92244 4252 ft 186 kts 10°
2026-04-25 10:00 10.34197 122.92346 4155 ft 187 kts 11°
2026-04-25 10:00 10.35498 122.92457 4061 ft 188 kts 10°
2026-04-25 10:01 10.36804 122.92581 3962 ft 188 kts 11°
2026-04-25 10:01 10.38102 122.92723 3867 ft 186 kts 14°
2026-04-25 10:01 10.39375 122.92950 3779 ft 186 kts 15°
2026-04-25 10:01 10.40658 122.93198 3677 ft 187 kts 15°
2026-04-25 10:02 10.41522 122.93373 3615 ft 188 kts 17°
2026-04-25 10:02 10.42787 122.93631 3520 ft 188 kts 16°
2026-04-25 10:02 10.44070 122.93893 3419 ft 187 kts 17°
2026-04-25 10:02 10.45353 122.94140 3331 ft 189 kts 16°
2026-04-25 10:03 10.46650 122.94387 3241 ft 190 kts 15°
2026-04-25 10:03 10.47953 122.94655 3143 ft 192 kts 16°
2026-04-25 10:03 10.49256 122.94942 3052 ft 192 kts 16°
2026-04-25 10:03 10.50552 122.95272 2972 ft 192 kts 20°
2026-04-25 10:04 10.51829 122.95671 2891 ft 191 kts 22°
2026-04-25 10:04 10.53058 122.96154 2824 ft 189 kts 27°
2026-04-25 10:04 10.54269 122.96690 2700 ft 190 kts 28°
2026-04-25 10:04 10.55464 122.97268 2625 ft 189 kts 30°
2026-04-25 10:05 10.56633 122.97886 2633 ft 189 kts 31°
2026-04-25 10:05 10.57787 122.98521 2589 ft 189 kts 32°
2026-04-25 10:05 10.58919 122.99175 2602 ft 185 kts 33°
2026-04-25 10:05 10.60021 122.99832 2563 ft 183 kts 33°
2026-04-25 10:06 10.61201 123.00354 2467 ft 189 kts 18°
2026-04-25 10:06 10.62508 123.00550 2354 ft 191 kts
2026-04-25 10:06 10.63820 123.00526 2341 ft 186 kts 358°
2026-04-25 10:06 10.65080 123.00393 2279 ft 184 kts 356°
2026-04-25 10:07 10.66337 123.00237 2203 ft 181 kts 354°
2026-04-25 10:07 10.67573 123.00054 2084 ft 178 kts 354°
2026-04-25 10:07 10.68765 122.99808 1943 ft 173 kts 349°
2026-04-25 10:07 10.69905 122.99490 1836 ft 165 kts 346°
2026-04-25 10:08 10.70983 122.99172 1729 ft 157 kts 349°
2026-04-25 10:08 10.72024 122.98949 1640 ft 152 kts 359°
2026-04-25 10:08 10.73048 122.99114 1536 ft 148 kts 24°
2026-04-25 10:08 10.73907 122.99606 1197 ft 140 kts 34°
2026-04-25 10:09 10.74726 123.00169 770 ft 143 kts 31°
2026-04-25 10:09 10.75588 123.00654 528 ft 138 kts 31°
2026-04-25 10:09 10.76394 123.01143 258 ft 128 kts 32°
2026-04-25 10:09 10.77059 123.01547 99 ft 89 kts 32°
2026-04-25 10:10 10.77468 123.01792 88 ft 51 kts 30°
2026-04-25 10:10 10.77653 123.01888 89 ft 16 kts 353°
2026-04-25 10:10 10.77723 123.01798 89 ft 18 kts 300°
2026-04-25 10:10 10.77749 123.01706 88 ft 14 kts 240°
2026-04-25 10:11 10.77650 123.01639 88 ft 20 kts 208°
2026-04-25 10:11 10.77514 123.01560 90 ft 24 kts 210°
2026-04-25 10:11 10.77394 123.01499 87 ft 15 kts 200°
2026-04-25 10:11 10.77312 123.01455 80 ft 12 kts 210°
2026-04-25 10:12 10.77249 123.01407 84 ft 9 kts 271°
2026-04-25 10:12 10.77278 123.01372 80 ft 6 kts 25°
2026-04-25 10:12 10.77284 123.01375 80 ft 0 kts 26°